When you browse on this site, cookies collect data to enhance your experience and personalize the content and advertising you see.
Visit our Privacy Policy to learn more. By continuing to use the site, you agree to this use of cookies and data.
  • In Austria
  • List of Countries
  • For 7 days
  • Water Temperature
  • Satellite Maps
  • Weather Map
  • News
  • Weather Widgets
  • user-avatar
    Login

    Hourly Weather Marrakesh

    Today, 13 December, Thursday

    Time Temperature Precipitation Wind Pressure Humidity
    00:00 +13°C° 0 mm 1 mps 726 mmHg 67%
    01:00 +13°C° 0 mm 1 mps 725 mmHg 68%
    02:00 +12°C° 0 mm 1 mps 725 mmHg 69%
    03:00 +13°C° 0 mm 1 mps 725 mmHg 66%
    04:00 +13°C° 0 mm 1 mps 725 mmHg 62%
    05:00 +13°C° 0 mm 1 mps 726 mmHg 59%
    06:00 +14°C° 0 mm 1 mps 726 mmHg 55%
    07:00 +15°C° 0 mm 1 mps 726 mmHg 51%
    08:00 +16°C° 0 mm 1 mps 726 mmHg 48%
    09:00 +18°C° 0 mm 1 mps 726 mmHg 44%
    10:00 +18°C° 0 mm 2 mps 726 mmHg 40%
    11:00 +19°C° 0 mm 2 mps 726 mmHg 36%
    12:00 +20°C° 0 mm 3 mps 726 mmHg 36%
    13:00 +20°C° 0 mm 3 mps 726 mmHg 36%
    14:00 +20°C° 0 mm 3 mps 725 mmHg 37%
    15:00 +20°C° 0 mm 3 mps 725 mmHg 42%
    16:00 +19°C° 0 mm 3 mps 726 mmHg 47%
    17:00 +18°C° 0 mm 3 mps 726 mmHg 53%
    18:00 +17°C° 0.1 mm 3 mps 726 mmHg 57%
    19:00 +17°C° 0.1 mm 3 mps 726 mmHg 61%
    20:00 +16°C° 0.1 mm 3 mps 727 mmHg 65%
    21:00 +16°C° 0.1 mm 3 mps 727 mmHg 67%
    22:00 +14°C° 0.1 mm 3 mps 727 mmHg 68%
    23:00 +14°C° 0.1 mm 3 mps 727 mmHg 69%

    Tomorrow, 14 December, Friday

    Time Temperature Precipitation Wind Pressure Humidity
    00:00 +14°C° 0 mm 2 mps 727 mmHg 72%
    01:00 +14°C° 0 mm 2 mps 726 mmHg 74%
    02:00 +13°C° 0 mm 2 mps 726 mmHg 77%
    03:00 +13°C° 0 mm 2 mps 726 mmHg 77%
    04:00 +13°C° 0 mm 2 mps 726 mmHg 78%
    05:00 +12°C° 0 mm 2 mps 726 mmHg 78%
    06:00 +12°C° 0 mm 3 mps 726 mmHg 74%
    07:00 +13°C° 0 mm 3 mps 727 mmHg 70%
    08:00 +13°C° 0 mm 4 mps 727 mmHg 65%
    09:00 +14°C° 0 mm 4 mps 727 mmHg 60%
    10:00 +15°C° 0 mm 5 mps 727 mmHg 55%
    11:00 +16°C° 0 mm 5 mps 727 mmHg 49%
    12:00 +17°C° 0 mm 5 mps 727 mmHg 47%
    13:00 +17°C° 0 mm 5 mps 726 mmHg 44%
    14:00 +19°C° 0 mm 4 mps 726 mmHg 42%
    15:00 +18°C° 0 mm 4 mps 726 mmHg 45%
    16:00 +17°C° 0 mm 4 mps 726 mmHg 48%
    17:00 +15°C° 0 mm 4 mps 726 mmHg 51%
    18:00 +15°C° 0 mm 4 mps 727 mmHg 53%
    19:00 +14°C° 0 mm 4 mps 727 mmHg 54%
    20:00 +14°C° 0 mm 3 mps 727 mmHg 56%
    21:00 +14°C° 0 mm 3 mps 727 mmHg 57%
    22:00 +13°C° 0 mm 3 mps 727 mmHg 57%
    23:00 +13°C° 0 mm 3 mps 727 mmHg 58%

    Day after tomorrow, 15 December, Saturday

    Time Temperature Precipitation Wind Pressure Humidity
    00:00 +13°C° 0 mm 3 mps 726 mmHg 59%
    01:00 +12°C° 0 mm 3 mps 726 mmHg 60%
    02:00 +13°C° 0 mm 2 mps 726 mmHg 62%
    03:00 +13°C° 0 mm 2 mps 726 mmHg 62%
    04:00 +12°C° 0 mm 2 mps 726 mmHg 62%
    05:00 +12°C° 0 mm 2 mps 726 mmHg 62%
    06:00 +13°C° 0 mm 2 mps 727 mmHg 58%
    07:00 +15°C° 0 mm 2 mps 727 mmHg 53%
    08:00 +16°C° 0 mm 2 mps 728 mmHg 49%
    09:00 +17°C° 0 mm 2 mps 728 mmHg 44%
    10:00 +19°C° 0 mm 2 mps 728 mmHg 39%
    11:00 +20°C° 0 mm 2 mps 729 mmHg 33%
    12:00 +21°C° 0 mm 2 mps 728 mmHg 32%
    13:00 +21°C° 0 mm 2 mps 728 mmHg 30%
    14:00 +23°C° 0 mm 2 mps 728 mmHg 28%
    15:00 +22°C° 0 mm 1 mps 728 mmHg 32%
    16:00 +20°C° 0 mm 1 mps 728 mmHg 36%
    17:00 +17°C° 0 mm 0 mps 728 mmHg 40%
    18:00 +16°C° 0 mm 0 mps 728 mmHg 41%
    19:00 +16°C° 0 mm 0 mps 728 mmHg 43%
    20:00 +15°C° 0 mm 0 mps 728 mmHg 44%
    21:00 +15°C° 0 mm 0 mps 728 mmHg 45%
    22:00 +14°C° 0 mm 0 mps 728 mmHg 46%
    23:00 +14°C° 0 mm 0 mps 728 mmHg 46%

    16 December, Sunday

    Time Temperature Precipitation Wind Pressure Humidity
    00:00 +14°C° 0 mm 0 mps 728 mmHg 47%
    01:00 +13°C° 0 mm 0 mps 728 mmHg 48%
    02:00 +13°C° 0 mm 0 mps 727 mmHg 49%
    03:00 +13°C° 0 mm 0 mps 727 mmHg 50%
    04:00 +12°C° 0 mm 0 mps 727 mmHg 51%
    05:00 +12°C° 0 mm 0 mps 727 mmHg 52%
    06:00 +14°C° 0 mm 0 mps 728 mmHg 48%
    07:00 +15°C° 0 mm 0 mps 728 mmHg 44%
    08:00 +17°C° 0 mm 0 mps 729 mmHg 40%
    09:00 +20°C° 0 mm 1 mps 729 mmHg 37%
    10:00 +21°C° 0 mm 1 mps 729 mmHg 34%
    11:00 +22°C° 0 mm 1 mps 729 mmHg 31%
    12:00 +23°C° 0 mm 2 mps 728 mmHg 30%
    13:00 +23°C° 0 mm 2 mps 728 mmHg 29%
    14:00 +23°C° 0 mm 2 mps 728 mmHg 28%
    15:00 +21°C° 0 mm 2 mps 728 mmHg 32%
    16:00 +20°C° 0 mm 2 mps 728 mmHg 36%
    17:00 +18°C° 0 mm 2 mps 728 mmHg 40%
    18:00 +17°C° 0 mm 2 mps 728 mmHg 44%
    19:00 +18°C° 0 mm 1 mps 729 mmHg 48%
    20:00 +16°C° 0 mm 1 mps 729 mmHg 52%
    21:00 +15°C° 0 mm 1 mps 729 mmHg 53%
    22:00 +15°C° 0 mm 1 mps 728 mmHg 54%
    23:00 +15°C° 0 mm 1 mps 728 mmHg 55%

    17 December, Monday

    Time Temperature Precipitation Wind Pressure Humidity
    00:00 +14°C° 0 mm 1 mps 728 mmHg 55%
    01:00 +14°C° 0 mm 1 mps 727 mmHg 55%
    02:00 +14°C° 0 mm 1 mps 727 mmHg 54%
    03:00 +13°C° 0 mm 1 mps 727 mmHg 55%
    04:00 +13°C° 0 mm 1 mps 727 mmHg 55%
    05:00 +13°C° 0 mm 2 mps 726 mmHg 55%
    06:00 +14°C° 0 mm 1 mps 727 mmHg 52%
    07:00 +15°C° 0 mm 1 mps 727 mmHg 49%
    08:00 +16°C° 0 mm 1 mps 728 mmHg 46%
    09:00 +18°C° 0 mm 2 mps 728 mmHg 41%
    10:00 +20°C° 0 mm 2 mps 728 mmHg 36%
    11:00 +21°C° 0 mm 2 mps 728 mmHg 31%
    12:00 +23°C° 0 mm 2 mps 728 mmHg 29%
    13:00 +22°C° 0 mm 3 mps 727 mmHg 28%
    14:00 +24°C° 0 mm 3 mps 727 mmHg 26%
    15:00 +21°C° 0 mm 2 mps 727 mmHg 31%
    16:00 +20°C° 0 mm 2 mps 727 mmHg 36%
    17:00 +19°C° 0 mm 1 mps 727 mmHg 41%
    18:00 +19°C° 0 mm 1 mps 727 mmHg 43%
    19:00 +18°C° 0 mm 1 mps 728 mmHg 46%
    20:00 +18°C° 0 mm 1 mps 728 mmHg 48%
    21:00 +16°C° 0 mm 1 mps 728 mmHg 49%
    22:00 +16°C° 0 mm 1 mps 727 mmHg 50%
    23:00 +14°C° 0 mm 0 mps 727 mmHg 51%

    18 December, Tuesday

    Time Temperature Precipitation Wind Pressure Humidity
    00:00 +15°C° 0 mm 1 mps 727 mmHg 51%
    01:00 +15°C° 0 mm 1 mps 726 mmHg 50%
    02:00 +15°C° 0 mm 1 mps 726 mmHg 50%
    03:00 +14°C° 0 mm 1 mps 726 mmHg 51%
    04:00 +14°C° 0 mm 1 mps 726 mmHg 52%
    05:00 +14°C° 0 mm 1 mps 726 mmHg 53%
    06:00 +15°C° 0 mm 1 mps 727 mmHg 49%
    07:00 +16°C° 0 mm 1 mps 727 mmHg 46%
    08:00 +19°C° 0 mm 1 mps 728 mmHg 42%
    09:00 +20°C° 0 mm 1 mps 728 mmHg 38%
    10:00 +21°C° 0 mm 2 mps 728 mmHg 34%
    11:00 +23°C° 0 mm 2 mps 728 mmHg 30%
    12:00 +23°C° 0 mm 2 mps 727 mmHg 29%
    13:00 +24°C° 0 mm 3 mps 727 mmHg 28%
    14:00 +24°C° 0 mm 3 mps 727 mmHg 28%
    15:00 +23°C° 0 mm 2 mps 727 mmHg 32%
    16:00 +20°C° 0 mm 2 mps 727 mmHg 36%
    17:00 +20°C° 0 mm 1 mps 727 mmHg 41%
    18:00 +19°C° 0 mm 1 mps 727 mmHg 42%
    19:00 +19°C° 0 mm 1 mps 727 mmHg 43%
    20:00 +18°C° 0 mm 1 mps 727 mmHg 44%
    21:00 +18°C° 0 mm 1 mps 727 mmHg 45%
    22:00 +16°C° 0 mm 1 mps 727 mmHg 46%
    23:00 +16°C° 0 mm 1 mps 727 mmHg 47%
    Show more